Weather History for Ballenas Island, BC

Change the Weather History Date:

Wednesday, November 7, 2012

  Actual Average Record
Temperature  
Mean Temperature 46 °F -  
Max Temperature 49 °F - - ()
Min Temperature 44 °F - - ()
Degree Days  
Heating Degree Days 18    
Moisture  
Dew Point 41 °F    
Average Humidity 76    
Maximum Humidity 88    
Minimum Humidity 63    
Precipitation  
Precipitation 0.01 in - - ()
Sea Level Pressure  
Sea Level Pressure 30.01 in    
Wind  
Wind Speed 10 mph ()    
Max Wind Speed 21 mph    
Max Gust Speed -    
T = Trace of Precipitation, MM = Missing Value Source: Averaged Metar Reports

Daily Weather History Graph

Daily Weather History Graph

Search for Another Location

Airport:

Trip Planner

Search our weather history database for the weather conditions in past years. The results will help you decide how hot, cold, wet, or windy it might be!

Date:

Astronomy

Nov. 07, 2012 Rise Set
Actual Time 7:15 AM PST 4:44 PM PST
Civil Twilight 6:41 AM PST 5:18 PM PST
Nautical Twilight 6:03 AM PST 5:56 PM PST
Astronomical Twilight 5:25 AM PST 6:34 PM PST
Moon No Moon Rise 1:29 PM PST (11/7)
Length of Visible Light 10h 37m
Length of Day
9h 29m
Last Quarter, 42% of the Moon is Illuminated
Nov 7
Last Quarter
Nov 13
New
Nov 20
First Quarter
Nov 28
Full
Dec 6
Last Quarter

Hourly Weather History & Observations

Time (PST) Temp. Windchill Dew Point Humidity Pressure Visibility Wind Dir Wind Speed Gust Speed Precip Events Conditions
12:00 AM 49.3 °F - 43.9 °F 82% 29.95 in - North 3.5 mph - N/A   Unknown
1:00 AM 49.5 °F - 41.7 °F 75% 29.96 in - WNW 20.7 mph - N/A   Unknown
2:00 AM 48.9 °F - 43.0 °F 80% 29.97 in - NW 18.4 mph - N/A   Unknown
3:00 AM 48.4 °F - 40.8 °F 75% 29.98 in - WNW 20.7 mph - N/A   Unknown
4:00 AM 48 °F - 42 °F 73% 30.00 in - NW 17.3 mph - -  
4:00 AM 47.7 °F - 42.1 °F 81% 30.00 in - NW 17.3 mph - N/A   Unknown
5:00 AM 47.3 °F - 41.7 °F 81% 30.01 in - NW 16.1 mph - N/A   Unknown
6:00 AM 47.3 °F - 41.2 °F 79% 30.03 in - NW 12.7 mph - N/A   Unknown
7:00 AM 46.8 °F - 39.9 °F 77% 30.04 in - WNW 8.1 mph - N/A   Unknown
9:00 AM 48.2 °F - 40.1 °F 74% 30.06 in - SE 3.5 mph - N/A   Unknown
10:00 AM 49 °F - 40 °F 63% 30.06 in - ESE 3.5 mph - -  
10:00 AM 48.7 °F - 40.3 °F 73% 30.06 in - ESE 3.5 mph - N/A   Unknown
11:00 AM 48.7 °F - 42.1 °F 78% 30.06 in - ESE 6.9 mph - N/A   Unknown
12:00 PM 49.1 °F - 39.9 °F 71% 30.05 in - ESE 9.2 mph - N/A   Unknown
1:00 PM 49.1 °F - 41.9 °F 76% 30.04 in - ESE 11.5 mph - N/A   Unknown
2:00 PM 49.1 °F - 41.5 °F 75% 30.04 in - East 12.7 mph - N/A   Unknown
3:00 PM 48.7 °F - 41.5 °F 76% 30.02 in - East 13.8 mph - N/A   Unknown
4:00 PM 49 °F - 43 °F 71% 30.01 in - ESE 16.1 mph - -  
4:00 PM 48.6 °F - 42.6 °F 80% 30.01 in - ESE 16.1 mph - N/A   Unknown
5:00 PM 48.6 °F - 41.0 °F 75% 30.00 in - ESE 17.3 mph - N/A   Unknown
6:00 PM 47.8 °F - 42.4 °F 82% 30.00 in - ESE 3.5 mph - N/A   Unknown
7:00 PM 48.4 °F - 39.9 °F 73% 29.99 in - ESE 13.8 mph - N/A   Unknown
8:00 PM 47.5 °F - 40.1 °F 76% 29.98 in - ESE 11.5 mph - N/A   Unknown
9:00 PM 45.9 °F 44.6 °F 38.1 °F 74% 29.99 in - SE 3.5 mph - N/A   Unknown
10:00 PM 44 °F - 39 °F 76% 29.98 in - SSE 2.3 mph - -  
10:00 PM 44.4 °F - 39.0 °F 81% 29.98 in - SSE 2.3 mph - N/A   Unknown
11:00 PM 45.0 °F 39.7 °F 41.7 °F 88% 29.96 in - East 10.4 mph - 0.01 in   Unknown